Preview of NWS' New Version of Forecast
This preview is not operational and should not be used for support decisions.

Regional Weather Roundup (RWR)

Issued by Gray - Portland, ME (GYX)

                            
000
ASUS41 KGYX 171510
RWRGYX
WEATHER ROUNDUP FOR MAINE AND NEW HAMPSHIRE
NATIONAL WEATHER SERVICE GRAY ME
1100 AM EDT SAT AUG 17 2019

MEZ002-005-006-010-012-015-018-020-021-024-026-027-029-171600-
MAINE
  
CITY           SKY/WX    TMP DP  RH WIND       PRES   REMARKS
PORTLAND       CLOUDY    69  63  81 S6        30.09S                  
SANFORD        CLOUDY    67  66  97 VRB3      30.09S FOG              
BAR HARBOR     CLOUDY    62  62 100 SE3       30.13S FOG              
WISCASSET      CLOUDY    68  61  78 SE7       30.11S                  
ROCKLAND       CLOUDY    64  62  93 E5        30.11F                  
FRYEBURG       CLOUDY    69  63  81 SE7       30.09S                  
LEWISTONAUBURN CLOUDY    68  64  87 SE6       30.09F                  
AUGUSTA        CLOUDY    67  62  84 SE6       30.10F                  
WATERVILLE     CLOUDY    66  63  88 CALM      30.08F                  
BANGOR         CLOUDY    66  60  81 S8        30.12S                  
GREENVILLE       N/A     59  59 100 SE10      30.08F                  
MILLINOCKET    LGT RAIN  62  60  93 VRB3      30.11F                  
HOULTON        LGT RAIN  62  60  93 S5        30.09F                  
PRESQUE ISLE   RAIN      63  61  93 S6        30.09F                  
FRENCHVILLE    CLOUDY    63  59  87 SE9       30.08S                  
CARIBOU        LGT RAIN  64  59  83 S6        30.08S                  
$$

NHZ002-005-008-009-011-012-014-171600-
NEW HAMPSHIRE
  
CITY           SKY/WX    TMP DP  RH WIND       PRES   REMARKS
PORTSMOUTH     CLOUDY    69  66  91 SE9       30.06S                  
ROCHESTER      CLOUDY    69  65  86 S5        30.07F                  
NASHUA         CLOUDY    74  70  87 S5        30.07S                  
MANCHESTER     CLOUDY    74  67  78 S7        30.04F                  
CONCORD        CLOUDY    71  65  81 SE5       30.06F                  
LACONIA        LGT RAIN  67  66  97 NE3       30.08F FOG              
PLYMOUTH       CLOUDY    67  63  87 NE5       30.07S                  
BERLIN         CLOUDY    71  63  75 S6        30.07S                  
WHITEFIELD     CLOUDY    72  64  76 CALM      30.06S                  
JAFFREY        CLOUDY    74  65  73 VRB6      30.08F                  
KEENE          CLOUDY    73  67  81 CALM      30.06F                  
LEBANON        CLOUDY    75  66  73 CALM      30.04S                  
MT WASHINGTON  FOG       54  54 100 W22         N/A  VSB 0            
$$

VTZ005-007-008-171600-
VERMONT
  
CITY           SKY/WX    TMP DP  RH WIND       PRES   REMARKS
ST JOHNSBURY     N/A     71  65  81 MISG      30.03S                  
MONTPELIER     FAIR      74  68  81 S10       30.07S                  
BURLINGTON     PTSUNNY   80  67  64 S10       29.99S                  
$$

MAZ007-012-024-CTZ003-RIZ002-NYZ038-NYZ072-171600-
SOUTHERN NEW ENGLAND AND NY
  
CITY           SKY/WX    TMP DP  RH WIND       PRES   REMARKS
BOSTON         CLOUDY    71  65  81 SE13      30.07S HAZE             
WORCESTER      CLOUDY    70  67  90 S5        30.09F                  
NANTUCKET      CLOUDY    70  69  97 SE8       30.08R FOG              
PROVIDENCE     CLOUDY    74  70  87 S8        30.07S                  
HARTFORD       CLOUDY    74  69  85 CALM      30.06R                  
ALBANY         PTSUNNY   80  70  71 S9        30.02R                  
NEW YORK CITY  PTSUNNY   78  71  79 NE9       30.04R                  
$$

ANZ081-ANZ082-ANZ150-NHZ014-MEZ023>029-171600-
COASTAL MARINE OBSERVATIONS
  
STATION/POSITION TIME  TEMP    WIND        PRES    WAVE
                       AIR SEA DIR/SP/G            HT/PER
                 (UTC) (F)     (DEG/KT/KT) (MB)    (FT/S)
MATINICUS ROCK   1450   59                 1019.2F
ISLE OF SHOALS   1400   64     140/ 13/ 13 1017.9R
JEFFREYS LEDGE   1438      67                N/A     2/ 7
CASHES LEDGE BUO 1450   64 64  130/ 10/ 10 1019.4F   2/ 7
GEORGES BANK BUO 1450   69 70   50/  6/  8 1020.1R   4/ 8
$$

.............KEY..............
   WCI - WIND CHILL
   TC  - TEMPERATURE IN CELSIUS
   VSB - VISIBILITY IN MILES
   HX  - HEAT INDEX
   FAIR- INDICATES FEW OR NO CLOUDS BELOW 12,000 FT, WITH NO 
         SIGNIFICANT WEATHER AND/OR OBSTRUCTIONS TO VISIBILITY.